Home > Weather > New Haven > Past weeks

Flag for USA Past Weather in New Haven, Connecticut, USA — Yesterday and Last 2 Weeks

Now
78 °F

Sunny.


Feels Like: 80 °F
Forecast: 63 / 80 °F
Wind: 14 mph from South

Location: Tweed-New Haven Airport

Current Time: Jun 27, 2016 at 2:39:20 PM

Latest Report: Jun 27, 2016 at 1:53 PM


Visibility: 10 mi

Pressure: 30.05 "Hg

Humidity: 64%

Dew Point: 65 °F

Location of New HavenLocation

Past Weather in New Haven — Graph

°F

New Haven Temperature Yesterday

Maximum temperature yesterday: 80 °F (at 3:53 PM)
Minimum temperature yesterday: 58 °F (at 2:53 AM)
Average temperature yesterday: 69 °F

High & Low Weather Summary for the Past Weeks

 TemperatureHumidityPressure
High83 °F (Jun 21, 5:53 PM)97% (Jun 19, 4:53 AM)30.33 "Hg (Jun 19, 4:53 AM)
Low53 °F (Jun 18, 4:53 AM)26% (Jun 21, 6:53 PM)29.57 "Hg (Jun 12, 12:53 PM)
Average68 °F64%29.98 "Hg
* Reported Jun 12 12:53 PM — Jun 27 12:53 PM, New Haven, Weather by CustomWeather, © 2016

Note: Actual official high and low records may vary slightly from our data, if they occured in-between our weather recording intervals... More about our weather records

Advertising

New Haven Weather History for the Previous 24 Hours

Scroll right to see more
 ConditionsComfort  
Time TempWeatherWind HumidityBarometerVisibility
12:53 PM
Mon, Jun 27
77 °FSunny.7 mph56%30.07 "Hg10 mi
11:53 AM75 °FSunny.8 mph60%30.09 "Hg10 mi
10:53 AM74 °FScattered clouds.9 mph60%30.09 "Hg10 mi
9:53 AM72 °FScattered clouds.8 mph64%30.11 "Hg10 mi
8:53 AM70 °FScattered clouds.7 mph71%30.12 "Hg10 mi
7:53 AM69 °FScattered clouds.7 mph68%30.12 "Hg10 mi
6:53 AM68 °FScattered clouds.6 mph70%30.12 "Hg10 mi
5:53 AM67 °FPassing clouds.6 mph76%30.12 "Hg10 mi
4:53 AM67 °FClear.5 mph79%30.12 "Hg10 mi
3:53 AM66 °FClear.3 mph81%30.12 "Hg10 mi
2:53 AM66 °FClear.3 mph81%30.12 "Hg10 mi
1:53 AM67 °FClear.6 mph79%30.13 "Hg10 mi
12:53 AM66 °FClear.6 mph75%30.13 "Hg10 mi
11:53 PM
Sun, Jun 26
67 °FClear.5 mph71%30.13 "Hg10 mi
10:53 PM69 °FClear.5 mph61%30.14 "Hg10 mi
9:53 PM68 °FClear.3 mph70%30.13 "Hg10 mi
8:53 PM67 °FScattered clouds.5 mph76%30.14 "Hg10 mi
7:53 PM72 °FScattered clouds.7 mph61%30.15 "Hg10 mi
6:53 PM74 °FSunny.9 mph60%30.16 "Hg10 mi
5:53 PM76 °FSunny.12 mph60%30.16 "Hg10 mi
4:53 PM78 °FSunny.12 mph58%30.17 "Hg10 mi
3:53 PM80 °FSunny.10 mph56%30.18 "Hg10 mi
2:53 PM79 °FScattered clouds.9 mph56%30.20 "Hg10 mi
Weather by CustomWeather, © 2016

See weather overviewHow to use our weather pages